Location: Ambatotampy
(18.8181°S, 47.6186°E)
Time: 00:17:01
(UTC+00:00)

Okean 1 Rocket - Pass Details

Date: 21 January 2021
Orbit: 605 x 635 km, 82.5° (Epoch: 24 February)

Event Time Altitude Azimuth Distance (km) Brightness Sun altitude
Rises 01:07:51 0° 199° (SSW) 2,932 6.7 -18.1°
Reaches altitude 10° 01:10:16 10° 209° (SSW) 2,022 5.7 -17.6°
Maximum altitude 01:14:15 32° 272° (W) 1,093 3.8 -16.8°
Enters shadow 01:14:56 30° 290° (WNW) 1,130 3.8 -16.7°
